{"data":{"norad_id":46537,"intl_designator":"2020-070F","name":"STARLINK-1672","alt_names":[],"object_type":"PAYLOAD","status":"ACTIVE","operator":null,"country":"US","launch_date":"2020-10-06","launch_site_code":"AFETR","launch_vehicle":null,"mission":null,"orbit_class":"UNKNOWN","rcs_meters":null,"size_class":null,"mass_kg":null,"dimensions":null,"purposes":["comms"],"wikipedia_slug":null,"has_3d_model":false,"image_url":null,"decayed_at":null,"tle_current":{"epoch":"2026-05-25T05:07:25.415904Z","epoch_age_seconds":59884,"freshness":"FRESH","line1":"1 46537U 20070F   26145.21348861  .00056958  00000+0  69881-3 0  9992","line2":"2 46537  53.0441 128.1885 0005222  16.8749 343.2436 15.59778376311955","mean_motion":15.59778376,"eccentricity":0.0005222,"inclination_deg":53.0441,"raan_deg":128.1885,"arg_perigee_deg":16.8749,"mean_anomaly_deg":343.2436,"bstar":0.00069881,"rev_number":31195,"period_min":92.320808017151,"perigee_km":384.76452017845,"apogee_km":391.83138484285,"semimajor_km":6766.4349525106,"source":"CELESTRAK","updated_at":"2026-05-25T13:38:16.474968Z"}}}